Aérodrome :
LOGIN :

S'inscrire | Disclaimer

   EN    FR    IT 

 










Légende :    VFR   VFR Marginal   IFR   IFR Intensif   IFR Très Intensif
Visi : 
Plafond : 
>= 8 km
>= 3000ft
5 à 8 km
1000 à 3000 ft
1500m à 5 km
500 à 1000 ft
800 à 1500m
200 à 500 ft
< 800m
< 200 ft
Symboles :   Orages  Brouillard  Fortes neiges  Fortes précipitations  Vent > 20 kt
SIGMETs :   Divers  Orages  Givrage  Turbulence  Onde Orograph.  Cendres Volcan.







- Altitude de l'aérodrome : 106 ft
- Code IATA : XDA
- Voir les cartes d'approche


LFBY - Dax Seyresse

DERNIER METAR :
  • 161700Z AUTO 00000KT 9999 // ////// 25/17 Q1022

METARs EXPIRÉS :
  • 161630Z AUTO VRB02KT 9999 // ////// 25/17 Q1022
  • 161600Z AUTO 32003KT 270V010 9999 // BKN036 OVC049 24/17 Q1022
  • 161530Z AUTO VRB03KT 9999 // FEW027 BKN036 24/17 Q1022
  • 161500Z AUTO 29005KT 260V340 9999 // ////// 24/17 Q1022
  • 161430Z AUTO 30004KT 260V340 9999 // OVC032 24/18 Q1022

Prévision TAF périmée.
Pas de NOTAMs connus pour ce terrain.



MET'MAP, la Météo Aéronautique d'un coup d'oeil ! - Copyright ORBIFLY Décembre 2007 - Disclaimer

ORBIFLY MET'MAP TEAM :

Programmation & Développement : Alexandra Zaïnal
Conception & Développement : Baudouin d'Aumeries
Co-Programmation & Développement : Marc-Olivier Méhu
Soutien technique & logistique : Manuel Goepfert

Contact : metmap@orbifly.com




SOURCES & CREDITS :

   NOAA